Flag for U.S.A. Weather past 2 weeks in Terre Haute, Indiana, U.S.A.

Now
34 °F

Overcast.


Feels Like: 28 °F
Forecast: 20 / 34 °F
Wind: 7 mph from East

Location: Terre Haute International Airport - Hulman Field

Current Time: Dec 19, 2014 at 3:35:04 PM

Latest Report: Dec 19, 2014 at 2:53 PM


Visibility: 10 mi

Pressure: 30.29 "Hg

Humidity: 64%

Dew point: 23 °F

Location of Terre HauteLocation

Historic Weather in Terre Haute — Graph

°F

Terre Haute temperature yesterday

Maximum temperature yesterday: 30 °F (at 3:53 PM)
Minimum temperature yesterday: 25 °F (at 12:53 AM)
Average temperature yesterday: 27 °F

Past Weeks' High & Low Weather Summary

 TemperatureHumidityPressure
High49 °F (Dec 14, 2:53 PM)100% (Dec 5, 3:53 AM)30.62 "Hg (Dec 5, 3:53 AM)
Low22 °F (Dec 7, 6:53 AM)63% (Dec 19, 1:53 PM)29.69 "Hg (Dec 16, 1:53 AM)
Average36 °F84%30.24 "Hg
* Reported Dec 4 1:53 PM — Dec 19 1:53 PM, Terre Haute, Weather by CustomWeather, © 2014

Note: Actual official high and low records may vary slightly from our data, if they occured in-between our weather recording intervals... More about our weather records

Advertising

Terre Haute weather history for previous 24 hours

 ConditionsComfort  
Time TempWeatherWind HumidityBarometerVisibility
1:53 PM
Dec 19
33 °FPassing clouds.No wind63%30.29 "Hg10 mi
12:53 PM33 °FSunny.No wind66%30.32 "Hg10 mi
11:53 AM30 °FSunny.No wind69%30.32 "Hg10 mi
10:53 AM29 °FSunny.3 mph69%30.36 "Hg10 mi
9:53 AM27 °FSunny.5 mph75%30.35 "Hg9 mi
8:53 AM23 °FSunny.No wind88%30.35 "Hg8 mi
7:53 AM23 °FClear.5 mph85%30.32 "Hg9 mi
6:53 AM22 °FClear.3 mph89%30.32 "Hg8 mi
5:53 AM24 °FClear.No wind88%30.32 "Hg10 mi
4:53 AM26 °FPassing clouds.3 mph81%30.30 "Hg10 mi
3:53 AM28 °FOvercast.5 mph78%30.30 "Hg10 mi
2:53 AM28 °FOvercast.No wind81%30.31 "Hg9 mi
1:53 AM26 °FOvercast.No wind88%30.29 "Hg8 mi
12:53 AM25 °FClear.3 mph88%30.30 "Hg10 mi
11:53 PM
Dec 18
29 °FOvercast.No wind79%30.30 "Hg10 mi
10:53 PM29 °FOvercast.No wind79%30.30 "Hg10 mi
9:53 PM28 °FOvercast.No wind78%30.29 "Hg10 mi
8:53 PM27 °FPassing clouds.3 mph81%30.29 "Hg10 mi
7:53 PM29 °FOvercast.5 mph75%30.28 "Hg10 mi
6:53 PM30 °FMostly cloudy.5 mph69%30.27 "Hg10 mi
5:53 PM30 °FMostly cloudy.5 mph72%30.26 "Hg10 mi
4:53 PM30 °FMostly cloudy.No wind69%30.26 "Hg10 mi
3:53 PM30 °FMore clouds than sun.No wind69%30.26 "Hg10 mi
Weather by CustomWeather, © 2014

See weather overviewHow to use our weather pages